[[{"header":{"parameterUnit":"m.s-1","parameterCategory":1,"la1":30.2991,"la2":30.254,"lo1":-89.0895,"lo2":-89.0444,"dy":0.0017,"dx":0.0017,"nx":28,"ny":28,"refTime":"2025-09-16T03:00:00:Z","depth":0,"parameterNumber":2,"parameterNumberName":"U-component_of_WINDS"},"data":[0,0,0,0,0,0,0,0,0,0,0,0,0,0,0,0,0,0,0,0,0,0,0,0,0,0,0,0,0,0,0,0,0,0,0,0,0,0,0,0,0,0,0,0,0,0,0,0,0,0,0,0,0,0,0,0,0,0,-1.2003,-1.2002,0,-1.1933,-1.1932,-1.1931,-1.1866,-1.1865,-1.1864,-1.1863,-1.1791,-1.1789,-1.1788,0,0,0,0,0,0,0,0,0,0,0,0,0,-1.2081,-1.208,-1.2003,-1.2002,-1.2001,-1.1933,-1.1932,-1.1931,-1.1866,-1.1865,-1.1864,-1.1863,-1.1791,-1.179,-1.1788,0,0,0,0,0,0,0,0,0,0,0,0,0,-1.2033,-1.208,-1.2003,-1.1961,-1.1956,-1.1933,-1.1932,-1.1931,-1.1866,-1.1865,-1.1864,-1.1863,-1.1791,-1.179,-1.1788,-1.1801,0,0,-1.1782,-1.1782,0,0,0,0,0,0,0,0,-1.2036,-1.203,-1.1968,-1.1963,-1.1958,-1.1907,-1.1933,-1.1887,-1.1866,-1.19,-1.1863,-1.1862,-1.183,-1.1825,-1.1815,-1.1798,-1.1795,-1.1782,-1.1781,-1.178,-1.178,0,0,0,0,0,0,0,-1.2039,-1.2033,-1.1975,-1.1967,-1.1961,-1.1945,-1.1937,-1.1924,-1.1873,-1.1897,-1.1892,-1.1885,-1.1827,-1.1816,-1.1812,-1.1794,-1.1782,-1.1781,-1.178,-1.1779,-1.1787,-1.1788,0,0,0,0,0,0,-1.2049,-1.2036,-1.1977,-1.1973,-1.1995,-1.1945,-1.1936,-1.1925,-1.1873,-1.1864,-1.1886,-1.1882,-1.182,-1.1815,-1.181,-1.1823,-1.178,-1.1779,-1.1778,-1.1785,-1.1787,-1.1788,0,0,0,0,0,0,-1.2051,-1.2045,-1.198,-1.2003,-1.1994,-1.1945,-1.1933,-1.1924,-1.1913,-1.1864,-1.1855,-1.1884,-1.1819,-1.1812,-1.1804,-1.182,-1.1778,-1.1776,-1.1784,-1.1786,-1.1788,-1.185,0,0,0,0,0,0,-1.2054,-1.2046,-1.205,-1.2004,-1.1993,-1.1976,-1.1934,-1.1923,-1.191,-1.1904,-1.186,-1.1852,-1.1817,-1.1807,-1.1803,-1.1817,-1.1775,-1.1782,-1.1785,-1.1787,-1.1846,-1.1854,-1.186,0,0,0,0,0,-1.2057,-1.2069,-1.205,-1.2044,-1.1997,-1.1977,-1.1971,-1.1931,-1.1912,-1.1916,-1.1885,-1.1853,-1.1819,-1.1807,-1.1801,-1.1815,-1.1781,-1.1784,-1.1787,-1.1843,-1.1852,-1.186,0,0,0,0,0,0,-1.2117,-1.2062,-1.2041,-1.2039,-1.2013,-1.1966,-1.197,-1.1942,-1.1921,-1.1917,-1.1868,-1.1859,-1.1857,-1.1835,-1.1823,-1.1826,-1.1796,-1.1798,-1.1841,-1.1849,-1.1856,-1.1861,-1.1774,0,0,0,0,0,-1.2131,-1.2119,-1.2072,-1.2075,-1.2063,-1.2019,-1.2009,-1.1981,-1.1952,-1.1941,-1.1909,-1.1883,-1.1866,-1.1856,-1.1838,-1.1843,-1.1833,-1.185,-1.1857,-1.1863,-1.1865,-1.1868,-1.1875,-1.1798,-1.1798,-1.1798,0,0,-1.2158,-1.2126,-1.2122,-1.2086,-1.2063,-1.2053,-1.201,-1.2,-1.1992,-1.1939,-1.1931,-1.1907,-1.1874,-1.1874,-1.1872,-1.1855,-1.1884,-1.1866,-1.1871,-1.187,-1.1872,-1.1879,-1.1885,-1.18,-1.1799,-1.1799,0,0,-1.2202,-1.2177,-1.2177,-1.2156,-1.2122,-1.2093,-1.2093,-1.2051,-1.2033,-1.2024,-1.1985,-1.1975,-1.1947,-1.1926,-1.1911,-1.1951,-1.1921,-1.1946,-1.1982,-1.1986,-1.1992,-1.1997,-1.2013,-1.2019,-1.1949,-1.1949,-1.1949,0,-1.224,-1.2223,-1.2181,-1.2175,-1.2161,-1.2114,-1.2115,-1.2095,-1.2057,-1.2049,-1.2031,-1.1997,-1.1971,-1.1966,-1.1976,-1.1966,-1.1966,-1.1951,-1.1995,-1.1999,-1.2004,-1.2018,-1.2024,-1.1952,-1.1952,-1.1951,-1.1951,0,-1.2272,-1.2261,-1.2265,-1.2231,-1.2218,-1.2215,-1.2174,-1.2165,-1.214,-1.2113,-1.2105,-1.2073,-1.2049,-1.2046,-1.202,-1.2038,-1.2029,-1.2004,-1.1972,-1.2015,-1.2028,-1.2033,-1.1957,-1.1956,-1.1955,-1.1954,0,0,-1.2351,-1.2296,-1.2298,-1.2283,-1.2243,-1.2234,-1.223,-1.2207,-1.2201,-1.2177,-1.2173,-1.2152,-1.2129,-1.2113,-1.2085,-1.2088,-1.2124,-1.2062,-1.2061,-1.2076,-1.2144,-1.2163,-1.217,-1.2104,-1.2105,-1.2105,-1.2147,0,-1.239,-1.2379,-1.2343,-1.2344,-1.2334,-1.229,-1.2287,-1.2263,-1.2239,-1.2227,-1.22,-1.2186,-1.2156,-1.2147,-1.2148,-1.2119,-1.2137,-1.2115,-1.2101,-1.2101,-1.2111,-1.2177,-1.2197,-1.2237,-1.2151,-1.2152,-1.2153,0,-1.2432,-1.2413,-1.2413,-1.2376,-1.237,-1.2368,-1.2345,-1.2334,-1.2307,-1.2289,-1.2273,-1.2241,-1.2236,-1.2207,-1.2199,-1.2186,-1.2178,-1.2163,-1.2164,-1.2161,-1.213,-1.2177,-1.2249,-1.2256,-1.216,-1.2159,-1.2159,0,-1.2492,-1.2465,-1.2463,-1.2451,-1.2407,-1.2407,-1.2388,-1.2359,-1.2349,-1.2329,-1.2322,-1.2302,-1.2291,-1.2276,-1.2241,-1.2223,-1.2238,-1.2206,-1.2224,-1.2225,-1.2229,-1.223,-1.2302,-1.2223,-1.2223,-1.2223,-1.2223,0,-1.2539,-1.2542,-1.2489,-1.2488,-1.249,-1.2449,-1.2452,-1.2429,-1.2404,-1.2398,-1.2359,-1.2354,-1.2308,-1.2298,-1.227,-1.2269,-1.2264,-1.2251,-1.2243,-1.2254,-1.2257,-1.2249,-1.2245,-1.2225,-1.2224,-1.2224,-1.2224,0,-1.2606,-1.2571,-1.2565,-1.2525,-1.2515,-1.2518,-1.2484,-1.2481,-1.2455,-1.2448,-1.2444,-1.2404,-1.239,-1.2354,-1.2331,-1.2313,-1.232,-1.2306,-1.233,-1.2325,-1.2346,-1.2345,-1.2417,-1.2425,-1.234,-1.2341,-1.2342,0,-1.2639,-1.264,-1.26,-1.2593,-1.2577,-1.2567,-1.2556,-1.2516,-1.2507,-1.2477,-1.2479,-1.2463,-1.2448,-1.2429,-1.2398,-1.2381,-1.2366,-1.2393,-1.2363,-1.2375,-1.2368,-1.2369,-1.237,-1.2399,-1.24,-1.2401,-1.2402,0,-1.2701,-1.2684,-1.267,-1.2652,-1.264,-1.2623,-1.2604,-1.2601,-1.2556,-1.2548,-1.2535,-1.2524,-1.2501,-1.2486,-1.2465,-1.2446,-1.2418,-1.2412,-1.2415,-1.2427,-1.2441,-1.2435,-1.2348,-1.241,-1.2409,-1.2409,-1.2408,-1.2408,-1.2752,-1.2752,-1.2725,-1.2711,-1.2693,-1.2677,-1.2673,-1.2647,-1.2635,-1.2614,-1.2592,-1.2582,-1.2556,-1.2524,-1.2508,-1.25,-1.2485,-1.2489,-1.2491,-1.2493,-1.2499,-1.2442,-1.2496,-1.2496,-1.2495,-1.2495,-1.2495,0,-1.2814,-1.2794,-1.2783,-1.2758,-1.2748,-1.2722,-1.27,-1.2694,-1.2685,-1.2664,-1.265,-1.2636,-1.2622,-1.2591,-1.2574,-1.2574,-1.2561,-1.2571,-1.2571,-1.2568,-1.2513,-1.2512,-1.2583,-1.2583,-1.2583,-1.2582,-1.2582,-1.2582,-1.2845,-1.2843,-1.2824,-1.2814,-1.2794,-1.2784,-1.2774,-1.276,-1.2743,-1.2729,-1.2717,-1.2697,-1.2672,-1.2654,-1.264,-1.2631,-1.2628,-1.2643,-1.263,-1.258,-1.2571,-1.2563,-1.2562,-1.2642,-1.2642,-1.2686,-1.2686,-1.2687]},{"header":{"parameterUnit":"m.s-1","parameterCategory":1,"la1":30.2991,"la2":30.254,"lo1":-89.0895,"lo2":-89.0444,"dy":0.0017,"dx":0.0017,"nx":28,"ny":28,"refTime":"2025-09-16T03:00:00:Z","depth":0,"parameterNumber":3,"parameterNumberName":"V-component_of_WINDS"},"data":[0,0,0,0,0,0,0,0,0,0,0,0,0,0,0,0,0,0,0,0,0,0,0,0,0,0,0,0,0,0,0,0,0,0,0,0,0,0,0,0,0,0,0,0,0,0,0,0,0,0,0,0,0,0,0,0,0,0,3.2834,3.2834,0,3.2823,3.2823,3.2823,3.2861,3.2862,3.2863,3.2865,3.2849,3.2847,3.2846,0,0,0,0,0,0,0,0,0,0,0,0,0,3.2882,3.2881,3.2834,3.2834,3.2833,3.2823,3.2823,3.2823,3.2861,3.2862,3.2864,3.2865,3.2849,3.2847,3.2846,0,0,0,0,0,0,0,0,0,0,0,0,0,3.2865,3.288,3.2834,3.2851,3.2853,3.2823,3.2823,3.2823,3.2861,3.2862,3.2864,3.2866,3.285,3.2848,3.2845,3.2797,0,0,3.2839,3.2838,0,0,0,0,0,0,0,0,3.2866,3.2863,3.2849,3.285,3.2852,3.2845,3.2834,3.2814,3.286,3.2857,3.2865,3.2867,3.2846,3.2844,3.2838,3.2796,3.2796,3.2838,3.2837,3.2836,3.2835,0,0,0,0,0,0,0,3.2867,3.2864,3.2829,3.2848,3.285,3.2858,3.2858,3.2831,3.2842,3.2858,3.2861,3.2859,3.2847,3.284,3.2838,3.2795,3.2838,3.2836,3.2835,3.2834,3.2712,3.271,0,0,0,0,0,0,3.2866,3.2864,3.283,3.2829,3.2863,3.2856,3.2855,3.2845,3.2842,3.2844,3.2858,3.2861,3.2843,3.2841,3.2838,3.2779,3.2836,3.2834,3.2833,3.2714,3.2711,3.2709,0,0,0,0,0,0,3.2867,3.2863,3.283,3.2848,3.2844,3.2853,3.2842,3.2844,3.2838,3.2842,3.2844,3.2849,3.2844,3.2841,3.2807,3.2779,3.2833,3.2831,3.2716,3.2713,3.271,3.2663,0,0,0,0,0,0,3.2869,3.2863,3.2846,3.2847,3.2843,3.2801,3.284,3.2843,3.2834,3.2839,3.2835,3.2836,3.2846,3.281,3.2805,3.2777,3.2829,3.2718,3.2715,3.2711,3.2667,3.2659,3.2652,0,0,0,0,0,3.287,3.2832,3.2845,3.284,3.2822,3.2799,3.2797,3.281,3.2832,3.2814,3.2817,3.2836,3.2784,3.2806,3.28,3.2772,3.272,3.2716,3.2711,3.267,3.2661,3.2652,0,0,0,0,0,0,3.2826,3.2833,3.2847,3.2808,3.2803,3.2806,3.2783,3.28,3.2787,3.2791,3.2807,3.2806,3.2768,3.2767,3.2792,3.2724,3.2755,3.275,3.2726,3.2717,3.2709,3.2709,3.2827,0,0,0,0,0,3.2812,3.2795,3.2801,3.2766,3.2763,3.2774,3.2764,3.2775,3.277,3.2767,3.2768,3.276,3.2742,3.273,3.2714,3.2668,3.2666,3.2645,3.2638,3.2632,3.2626,3.26,3.259,3.2695,3.2695,3.2695,0,0,3.2782,3.2784,3.2772,3.2757,3.2755,3.2734,3.2771,3.2749,3.2733,3.2763,3.2731,3.2731,3.2724,3.2684,3.2666,3.2681,3.2597,3.2626,3.2621,3.2619,3.2594,3.2584,3.2576,3.2692,3.2693,3.2693,0,0,3.2718,3.2718,3.2689,3.2686,3.2682,3.2689,3.2682,3.2682,3.2684,3.2652,3.2674,3.2656,3.2625,3.2618,3.2611,3.2544,3.256,3.2538,3.2498,3.2472,3.2464,3.2457,3.2431,3.2422,3.2533,3.2533,3.2533,0,3.2681,3.2653,3.2671,3.2647,3.2639,3.2668,3.2637,3.2632,3.2622,3.2616,3.2634,3.2595,3.2593,3.255,3.2534,3.2528,3.2519,3.2538,3.2464,3.2457,3.245,3.2426,3.2416,3.253,3.253,3.2531,3.2531,0,3.2607,3.2587,3.2563,3.2555,3.2545,3.2517,3.253,3.2517,3.2529,3.2534,3.2501,3.2499,3.2482,3.2473,3.2485,3.2432,3.2442,3.2462,3.2493,3.2437,3.2414,3.2405,3.2526,3.2527,3.2528,3.2529,0,0,3.2512,3.2515,3.2505,3.2501,3.2499,3.2483,3.2457,3.2442,3.243,3.2422,3.2399,3.2373,3.2391,3.2383,3.2394,3.2372,3.2316,3.2394,3.2394,3.2378,3.2256,3.2239,3.2228,3.2328,3.2327,3.2325,3.2256,0,3.2447,3.2403,3.2419,3.2373,3.2354,3.2381,3.2357,3.2352,3.2356,3.2339,3.2344,3.2324,3.2351,3.2346,3.2325,3.2327,3.2292,3.2333,3.2304,3.2303,3.2303,3.2217,3.2199,3.2134,3.2247,3.2246,3.2245,0,3.2365,3.2355,3.2308,3.2309,3.2301,3.228,3.2267,3.2252,3.2246,3.2251,3.2241,3.2257,3.2229,3.2262,3.2223,3.225,3.224,3.2239,3.2237,3.2233,3.2269,3.2208,3.2114,3.2103,3.2231,3.2232,3.2233,0,3.2298,3.2273,3.2242,3.2238,3.2238,3.2222,3.2221,3.2218,3.2208,3.2197,3.219,3.2175,3.2166,3.2153,3.2163,3.2187,3.2121,3.2156,3.2122,3.2122,3.2105,3.2106,3.2005,3.2102,3.2102,3.2102,3.2103,0,3.2222,3.2192,3.2212,3.2192,3.2158,3.2176,3.2141,3.2143,3.214,3.2119,3.2142,3.2122,3.2138,3.2119,3.2127,3.2092,3.2088,3.2089,3.2091,3.2086,3.2086,3.2077,3.2081,3.21,3.21,3.2101,3.2101,0,3.2141,3.2154,3.212,3.2124,3.2124,3.2099,3.2101,3.2082,3.2088,3.2062,3.2057,3.2066,3.2044,3.2054,3.2032,3.2037,3.1991,3.2,3.1993,3.1995,3.196,3.1962,3.1849,3.1834,3.1942,3.1941,3.194,0,3.2091,3.2068,3.207,3.2059,3.2057,3.2038,3.2029,3.2045,3.2034,3.2026,3.2007,3.1989,3.1974,3.1938,3.1942,3.1924,3.1932,3.1893,3.1929,3.1924,3.1928,3.1929,3.1925,3.1885,3.1884,3.1883,3.1882,0,3.2,3.2007,3.1993,3.1981,3.1969,3.196,3.1952,3.1941,3.1958,3.1943,3.1923,3.1912,3.1889,3.1869,3.1854,3.1851,3.1868,3.1871,3.1862,3.1855,3.1851,3.1851,3.1971,3.1873,3.1874,3.1875,3.1875,3.1875,3.1931,3.1912,3.191,3.1893,3.189,3.1882,3.1864,3.1868,3.1852,3.1836,3.1847,3.1822,3.1816,3.1798,3.1793,3.1772,3.1787,3.1774,3.1771,3.1767,3.1761,3.1856,3.177,3.177,3.177,3.1771,3.1771,0,3.184,3.184,3.1825,3.1814,3.18,3.182,3.1813,3.1799,3.1778,3.1772,3.1758,3.1733,3.1714,3.1716,3.1698,3.1681,3.1689,3.1676,3.1676,3.1675,3.175,3.1759,3.167,3.167,3.167,3.167,3.167,3.167,3.179,3.1758,3.1765,3.1731,3.1731,3.1708,3.1702,3.1694,3.169,3.1662,3.1647,3.1649,3.1646,3.1628,3.1611,3.1612,3.1603,3.1587,3.159,3.166,3.167,3.1679,3.1687,3.1585,3.1585,3.1516,3.1516,3.1515]}]]